| time (UTC) | temp F | wind direction | speed MPH | gust MPH | rain 1hr in | rain 24hr in | rain mn in | humidity % | barometer mb |
| 20260903201556 | 93 | 242 | 3.0 | 10.0 | 0.00 | 0.00 | 0.00 | 67 | 985.2 |
| 20260903200055 | 93 | 242 | 5.0 | 11.0 | 0.00 | 0.00 | 0.00 | 68 | 985.5 |
| 20260903194553 | 94 | 225 | 3.0 | 9.0 | 0.00 | 0.00 | 0.00 | 67 | 985.8 |
| 20260903193049 | 94 | 227 | 2.0 | 8.0 | 0.00 | 0.00 | 0.00 | 69 | 986.2 |
| 20260903191547 | 93 | 278 | 5.0 | 12.0 | 0.00 | 0.00 | 0.00 | 67 | 986.4 |
| 20260903190047 | 93 | 224 | 3.0 | 11.0 | 0.00 | 0.00 | 0.00 | 66 | 986.5 |
| 20260903184544 | 94 | 230 | 2.0 | 9.0 | 0.00 | 0.00 | 0.00 | 69 | 986.7 |
| 20260903183040 | 94 | 233 | 3.0 | 8.0 | 0.00 | 0.00 | 0.00 | 65 | 986.7 |
| 20260903181535 | 93 | 171 | 2.0 | 8.0 | 0.00 | 0.00 | 0.00 | 67 | 986.8 |
| 20260903180035 | 93 | 243 | 6.0 | 9.0 | 0.00 | 0.00 | 0.00 | 66 | 986.8 |
| 20260903174551 | 93 | 240 | 2.0 | 8.0 | 0.00 | 0.00 | 0.00 | 71 | 986.7 |
| 20260903173028 | 92 | 269 | 3.0 | 8.0 | 0.00 | 0.00 | 0.00 | 68 | 986.7 |
| 20260903171523 | 92 | 238 | 1.0 | 7.0 | 0.00 | 0.00 | 0.00 | 72 | 986.7 |
| 20260903170023 | 92 | 273 | 4.0 | 8.0 | 0.00 | 0.00 | 0.00 | 69 | 986.9 |
| 20260903164519 | 91 | 236 | 4.0 | 9.0 | 0.00 | 0.00 | 0.00 | 72 | 987.0 |
| 20260903163018 | 90 | 223 | 2.0 | 9.0 | 0.00 | 0.00 | 0.00 | 70 | 987.3 |
| 20260903161522 | 90 | 230 | 1.0 | 6.0 | 0.00 | 0.00 | 0.00 | 75 | 987.4 |
| 20260903160012 | 90 | 237 | 1.0 | 8.0 | 0.00 | 0.00 | 0.00 | 75 | 987.6 |
| 20260903154510 | 89 | 233 | 3.0 | 7.0 | 0.00 | 0.00 | 0.00 | 75 | 987.6 |
| 20260903153006 | 88 | 238 | 4.0 | 9.0 | 0.00 | 0.00 | 0.00 | 76 | 987.6 |
| 20260903151506 | 87 | 241 | 4.0 | 13.0 | 0.00 | 0.00 | 0.00 | 78 | 987.6 |
| 20260903150001 | 86 | 236 | 5.0 | 11.0 | 0.00 | 0.00 | 0.00 | 76 | 987.6 |
| 20260903144559 | 86 | 245 | 4.0 | 9.0 | 0.00 | 0.00 | 0.00 | 78 | 987.6 |
| 20260903144500 | 86 | 231 | 4.0 | 9.0 | 0.00 | 0.00 | 0.00 | 78 | 987.6 |
| 20260903143056 | 85 | 230 | 2.0 | 8.0 | 0.00 | 0.00 | 0.00 | 80 | 987.4 |
| 20260903141553 | 84 | 244 | 4.0 | 10.0 | 0.00 | 0.00 | 0.00 | 81 | 987.4 |
| 20260903140051 | 84 | 239 | 3.0 | 8.0 | 0.00 | 0.00 | 0.00 | 82 | 987.3 |
| 20260903134547 | 83 | 224 | 3.0 | 6.0 | 0.00 | 0.00 | 0.00 | 83 | 987.5 |
| 20260903133051 | 82 | 250 | 2.0 | 6.0 | 0.00 | 0.00 | 0.00 | 85 | 987.6 |
| 20260903131547 | 81 | 226 | 2.0 | 5.0 | 0.00 | 0.00 | 0.00 | 86 | 987.8 |
| 20260903130037 | 80 | 236 | 1.0 | 5.0 | 0.00 | 0.00 | 0.00 | 87 | 987.8 |
| 20260903124534 | 79 | 236 | 1.0 | 5.0 | 0.00 | 0.00 | 0.00 | 88 | 987.8 |
| 20260903123030 | 78 | 236 | 1.0 | 3.0 | 0.00 | 0.00 | 0.00 | 90 | 987.7 |
| 20260903121529 | 76 | 247 | 0.0 | 0.0 | 0.00 | 0.00 | 0.00 | 94 | 987.7 |
| 20260903120030 | 74 | 247 | 0.0 | 1.0 | 0.00 | 0.00 | 0.00 | 97 | 987.8 |
| 20260903114525 | 0 | 0.0 | 0.0 | 0.00 | 0.00 | 0.00 | 987.8 | ||
| 20260903113021 | 0 | 0.0 | 0.0 | 0.00 | 0.00 | 0.00 | 987.7 | ||
| 20260903111524 | 0 | 0.0 | 0.0 | 0.00 | 0.00 | 0.00 | 987.5 | ||
| 20260903110012 | 0 | 0.0 | 0.0 | 0.00 | 0.00 | 0.00 | 987.5 | ||
| 20260903104508 | 0 | 243 | 0.0 | 1.0 | 0.00 | 0.00 | 0.00 | 987.5 | |
| 20260903103004 | 73 | 247 | 0.0 | 2.0 | 0.00 | 0.00 | 0.00 | 95 | 987.2 |
| 20260903101505 | 73 | 247 | 0.0 | 0.0 | 0.00 | 0.00 | 0.00 | 94 | 987.3 |
| 20260903100100 | 74 | 247 | 0.0 | 0.0 | 0.00 | 0.00 | 0.00 | 94 | 987.3 |
| 20260903094607 | 74 | 247 | 0.0 | 2.0 | 0.00 | 0.00 | 0.00 | 94 | 987.3 |
| 20260903093057 | 74 | 247 | 0.0 | 2.0 | 0.00 | 0.00 | 0.00 | 94 | 987.3 |
| 20260903091554 | 75 | 247 | 1.0 | 2.0 | 0.00 | 0.00 | 0.00 | 93 | 987.2 |
| 20260903090052 | 75 | 251 | 0.0 | 2.0 | 0.00 | 0.00 | 0.00 | 93 | 987.1 |
| 20260903084550 | 75 | 238 | 1.0 | 2.0 | 0.00 | 0.00 | 0.00 | 93 | 987.1 |
| 20260903083050 | 76 | 238 | 0.0 | 1.0 | 0.00 | 0.00 | 0.00 | 92 | 987.0 |
| 20260903081547 | 76 | 238 | 0.0 | 4.0 | 0.00 | 0.00 | 0.00 | 91 | 986.9 |
| 20260903080046 | 76 | 236 | 1.0 | 3.0 | 0.00 | 0.00 | 0.00 | 91 | 986.9 |
| 20260903074547 | 76 | 242 | 1.0 | 4.0 | 0.00 | 0.00 | 0.00 | 91 | 987.0 |
| 20260903073048 | 76 | 238 | 1.0 | 3.0 | 0.00 | 0.00 | 0.00 | 92 | 986.9 |
| 20260903071545 | 76 | 234 | 0.0 | 4.0 | 0.00 | 0.00 | 0.00 | 93 | 986.9 |
| 20260903070045 | 76 | 224 | 0.0 | 0.0 | 0.00 | 0.00 | 0.00 | 92 | 986.8 |
| 20260903064544 | 77 | 224 | 0.0 | 0.0 | 0.00 | 0.00 | 0.00 | 92 | 986.9 |
| 20260903063041 | 76 | 226 | 1.0 | 4.0 | 0.00 | 0.00 | 0.00 | 93 | 987.0 |
| 20260903061556 | 76 | 240 | 0.0 | 1.0 | 0.00 | 0.00 | 0.00 | 93 | 987.0 |
| 20260903060040 | 76 | 167 | 0.0 | 0.0 | 0.00 | 0.00 | 0.00 | 93 | 986.9 |
| 20260903054539 | 76 | 157 | 0.0 | 1.0 | 0.00 | 0.00 | 0.00 | 94 | 986.8 |
| 20260903053046 | 76 | 221 | 0.0 | 0.0 | 0.00 | 0.00 | 0.00 | 94 | 986.8 |
| 20260903051540 | 76 | 221 | 0.0 | 0.0 | 0.00 | 0.00 | 0.00 | 93 | 986.8 |
| 20260903050036 | 77 | 221 | 0.0 | 0.0 | 0.00 | 0.00 | 0.00 | 93 | 986.7 |
| 20260903044534 | 77 | 221 | 0.0 | 0.0 | 0.00 | 0.00 | 0.00 | 93 | 986.6 |
| 20260903043037 | 77 | 144 | 0.0 | 0.0 | 0.00 | 0.00 | 0.00 | 93 | 986.5 |
| 20260903041533 | 77 | 144 | 0.0 | 2.0 | 0.00 | 0.00 | 0.00 | 93 | 986.4 |
| 20260903040027 | 77 | 148 | 0.0 | 2.0 | 0.00 | 0.00 | 0.00 | 94 | 986.4 |
| 20260903034526 | 77 | 148 | 0.0 | 2.0 | 0.00 | 0.00 | 0.00 | 95 | 986.6 |
| 20260903033025 | 77 | 139 | 0.0 | 1.0 | 0.00 | 0.00 | 0.00 | 94 | 986.6 |
| 20260903031529 | 78 | 139 | 0.0 | 2.0 | 0.00 | 0.00 | 0.00 | 94 | 986.8 |
| 20260903030043 | 78 | 139 | 1.0 | 3.0 | 0.00 | 0.00 | 0.00 | 94 | 986.8 |
| 20260903024524 | 77 | 142 | 2.0 | 3.0 | 0.00 | 0.00 | 0.00 | 95 | 986.8 |
| 20260903023024 | 77 | 234 | 0.0 | 0.0 | 0.00 | 0.00 | 0.00 | 95 | 987.0 |
| 20260903021524 | 78 | 234 | 0.0 | 1.0 | 0.00 | 0.00 | 0.00 | 95 | 986.9 |
| 20260903020023 | 78 | 234 | 0.0 | 0.0 | 0.00 | 0.00 | 0.00 | 93 | 986.8 |
| 20260903014524 | 78 | 234 | 0.0 | 0.0 | 0.00 | 0.00 | 0.00 | 92 | 986.7 |
| 20260903013036 | 79 | 234 | 0.0 | 0.0 | 0.00 | 0.00 | 0.00 | 91 | 986.7 |
| 20260903011522 | 80 | 234 | 0.0 | 0.0 | 0.00 | 0.00 | 0.00 | 90 | 986.6 |
| 20260903010031 | 81 | 234 | 0.0 | 0.0 | 0.00 | 0.00 | 0.00 | 89 | 986.4 |
| 20260903004520 | 82 | 233 | 0.0 | 0.0 | 0.00 | 0.00 | 0.00 | 87 | 986.4 |
| 20260903003019 | 84 | 234 | 0.0 | 0.0 | 0.00 | 0.00 | 0.00 | 85 | 986.4 |
| 20260903001520 | 85 | 234 | 0.0 | 0.0 | 0.00 | 0.00 | 0.00 | 83 | 986.4 |
| 20260903000017 | 87 | 233 | 0.0 | 1.0 | 0.00 | 0.00 | 0.00 | 81 | 986.4 |
| 20260902234522 | 88 | 234 | 0.0 | 2.0 | 0.00 | 0.00 | 0.00 | 80 | 986.4 |
| 20260902233015 | 89 | 234 | 0.0 | 2.0 | 0.00 | 0.00 | 0.00 | 78 | 986.3 |
| 20260902231514 | 89 | 239 | 1.0 | 3.0 | 0.00 | 0.00 | 0.00 | 77 | 986.3 |
| 20260902230016 | 89 | 237 | 1.0 | 4.0 | 0.00 | 0.00 | 0.00 | 78 | 986.4 |
| 20260902224520 | 90 | 243 | 2.0 | 6.0 | 0.00 | 0.00 | 0.00 | 76 | 986.4 |
| 20260902223015 | 91 | 232 | 2.0 | 6.0 | 0.00 | 0.00 | 0.00 | 74 | 986.5 |
| 20260902221517 | 92 | 233 | 2.0 | 7.0 | 0.00 | 0.00 | 0.00 | 72 | 986.5 |
| 20260902220024 | 92 | 207 | 3.0 | 8.0 | 0.00 | 0.00 | 0.00 | 71 | 986.4 |
| 20260902214512 | 92 | 224 | 2.0 | 9.0 | 0.00 | 0.00 | 0.00 | 72 | 986.4 |
| 20260902213009 | 92 | 261 | 4.0 | 10.0 | 0.00 | 0.00 | 0.00 | 71 | 986.3 |
| 20260902211507 | 92 | 240 | 4.0 | 11.0 | 0.00 | 0.00 | 0.00 | 71 | 986.5 |
| 20260902210008 | 92 | 236 | 4.0 | 12.0 | 0.00 | 0.00 | 0.00 | 70 | 986.5 |
| 20260902204507 | 92 | 219 | 3.0 | 11.0 | 0.00 | 0.00 | 0.00 | 70 | 986.6 |
| 20260902203004 | 92 | 227 | 3.0 | 9.0 | 0.00 | 0.00 | 0.00 | 71 | 986.7 |